MST,Max TemperatureF,Mean TemperatureF,Min TemperatureF,Max Dew PointF,MeanDew PointF,Min DewpointF,Max Humidity, Mean Humidity, Min Humidity, Max Sea Level PressureIn, Mean Sea Level PressureIn, Min Sea Level PressureIn, Max VisibilityMiles, Mean VisibilityMiles, Min VisibilityMiles, Max Wind SpeedMPH, Mean Wind SpeedMPH, Max Gust SpeedMPH,PrecipitationIn, CloudCover, Events, WindDirDegrees
2011-11-1,62,47,33,34,30,17,100,61,30,30.10,29.94,29.78,10,9,2,25,6,40,0.09,3,Rain-Snow,317
2011-11-2,48,38,30,34,27,20,100,70,35,30.47,30.31,30.10,10,9,2,12,6,16,0.06,3,Snow,292
2011-11-3,50,39,30,28,25,22,82,61,38,30.43,30.23,30.00,10,10,10,8,2,,0.00,0,,140
2011-11-4,66,48,33,37,25,19,78,47,17,29.98,29.70,29.45,10,10,10,36,7,45,0.00,2,,219
2011-11-5,46,40,34,41,33,19,96,76,40,29.90,29.57,29.37,10,9,5,23,12,22,0.35,7,Rain,289
2011-11-6,46,38,30,32,26,22,85,64,40,30.00,29.95,29.89,10,10,10,12,3,,0.00,5,,173
2011-11-7,46,40,33,34,32,30,89,76,52,30.04,29.96,29.89,10,10,10,17,7,,0.00,7,,41
2011-11-8,45,36,28,29,24,19,88,65,37,30.40,30.23,30.04,10,10,10,9,3,,0.00,0,,267
2011-11-9,46,35,24,26,23,20,86,67,35,30.60,30.52,30.41,10,10,10,7,3,,0.00,0,,286
2011-11-10,46,35,24,24,21,19,88,65,34,30.60,30.46,30.31,10,10,10,8,1,,0.00,0,,283
2011-11-11,43,34,25,27,22,19,88,63,38,30.30,30.12,29.95,10,10,10,6,1,,0.00,1,,309
2011-11-12,55,44,32,30,26,18,85,59,23,29.91,29.81,29.66,10,10,10,30,5,36,0.00,5,,257
2011-11-13,50,40,30,39,33,26,85,74,61,29.87,29.79,29.73,10,10,9,16,4,,0.04,3,Rain,208
2011-11-14,57,44,30,37,30,24,96,66,30,29.92,29.85,29.76,10,10,10,13,3,21,0.00,0,,230
2011-11-15,54,42,30,33,27,19,89,59,35,30.03,29.94,29.85,10,10,10,14,4,,0.00,2,,276
2011-11-16,48,36,24,21,14,2,77,46,15,30.34,30.24,30.05,10,10,10,8,3,,0.00,0,,308
2011-11-17,51,38,24,19,16,12,69,47,23,30.30,30.14,29.91,10,10,10,9,2,,0.00,0,,115
2011-11-18,60,42,24,25,21,19,81,43,20,29.88,29.67,29.44,10,10,10,22,6,36,0.00,0,,201
2011-11-19,52,46,39,30,25,20,68,48,31,29.84,29.71,29.47,10,10,10,20,10,29,0.00,3,,256
2011-11-20,55,46,36,31,28,24,82,55,29,29.99,29.92,29.83,10,10,10,17,3,24,0.00,4,,241
2011-11-21,55,48,39,37,32,29,79,57,38,30.16,30.01,29.90,10,10,10,12,4,,0.01,6,Rain,271
2011-11-22,53,40,28,34,30,27,93,71,41,30.38,30.29,30.18,10,10,10,7,2,,0.00,0,,282
2011-11-23,54,42,30,31,28,26,85,66,37,30.39,30.26,30.14,10,10,10,8,3,,0.00,0,,180
2011-11-24,48,37,26,32,27,23,89,69,44,30.14,30.05,29.98,10,10,10,9,2,,0.00,0,,323
2011-11-25,55,41,27,29,22,12,85,56,28,30.29,30.07,29.97,10,10,10,31,7,39,0.00,0,,300
2011-11-26,44,34,23,14,7,4,53,32,19,30.70,30.57,30.32,10,10,10,16,7,,0.00,0,,50
2011-11-27,45,33,21,10,8,6,60,41,21,30.72,30.62,30.52,10,10,10,6,2,,0.00,0,,312
2011-11-28,43,30,18,16,11,9,71,46,25,30.57,30.45,30.36,10,10,10,7,2,,0.00,0,,299
2011-11-29,51,37,23,17,14,12,68,45,23,30.44,30.35,30.25,10,10,10,4,1,,0.00,0,,182
2011-11-30,55,38,21,20,17,12,68,46,23,30.22,29.94,29.75,10,10,10,12,3,,0.00,1,,16